Date,TemperatureHighF,TemperatureAvgF,TemperatureLowF,DewpointHighF,DewpointAvgF,DewpointLowF,HumidityHigh,HumidityAvg,HumidityLow,PressureMaxIn,PressureMinIn,WindSpeedMaxMPH,WindSpeedAvgMPH,GustSpeedMaxMPH,PrecipitationSumIn
2013-8-1,72.5,58.1,50.7,53.9,44.6,34.6,95,63,35,24.81,24.69,19,4,19,0.00
2013-8-2,67.5,56.8,45.0,54.3,43.4,37.0,87,63,37,24.83,24.69,22,4,22,0.00
2013-8-3,74.3,59.8,46.2,46.2,41.1,36.1,83,54,29,24.86,24.78,10,4,10,0.00
2013-8-4,81.1,64.8,47.3,42.0,37.8,32.2,74,42,20,24.86,24.75,15,5,15,0.00
2013-8-5,79.5,66.1,49.3,41.1,34.2,31.3,51,32,20,24.83,24.69,17,5,17,0.00
2013-8-6,82.0,66.1,50.9,42.3,36.9,32.6,58,36,21,24.81,24.75,13,5,13,0.00
2013-8-7,85.5,68.0,51.4,39.9,35.4,30.8,54,33,16,24.81,24.69,15,5,15,0.00
2013-8-8,83.8,67.5,51.1,44.8,37.8,32.6,52,35,19,24.81,24.72,13,4,13,0.00
2013-8-9,80.2,64.8,53.4,49.1,44.4,34.2,75,50,26,24.83,24.75,20,2,20,0.00
2013-8-10,85.3,62.8,48.7,49.2,42.0,34.8,75,50,24,24.83,24.75,15,4,15,0.00
2013-8-11,82.6,63.4,51.1,48.7,40.3,33.2,74,46,20,24.86,24.78,21,5,25,0.00
2013-8-12,82.4,62.3,49.5,47.8,41.0,32.9,75,50,22,24.92,24.81,20,5,20,0.00
2013-8-13,85.1,63.6,49.5,47.9,40.2,34.3,70,47,20,24.89,24.81,28,5,28,0.00
2013-8-14,85.5,66.7,50.0,44.9,37.6,31.0,62,38,19,24.86,24.75,11,5,11,0.00
2013-8-15,90.3,70.7,50.7,39.1,30.5,24.5,47,26,10,24.81,24.72,17,5,17,0.00
2013-8-16,90.1,71.9,54.3,40.5,29.2,18.7,37,23,8,24.78,24.72,22,6,22,0.00
2013-8-17,83.8,70.2,55.2,43.7,37.2,30.5,50,31,16,24.86,24.72,13,4,13,0.00
2013-8-18,84.6,71.4,57.2,46.0,38.3,32.1,52,32,18,24.83,24.72,17,5,17,0.00
2013-8-19,86.2,71.1,53.2,40.8,30.9,17.4,52,26,8,24.83,24.69,19,5,19,0.00
2013-8-20,84.9,69.5,53.1,39.0,31.8,25.5,45,26,13,24.81,24.69,17,4,17,0.00
2013-8-21,87.1,67.4,48.0,38.7,32.8,28.1,51,30,13,24.86,24.75,13,4,13,0.00
2013-8-22,87.8,67.7,53.2,49.0,37.1,27.5,67,35,18,24.83,24.69,17,4,17,0.00
2013-8-23,80.2,66.5,53.2,49.0,41.0,35.8,69,42,22,24.75,24.57,23,5,23,0.00
2013-8-24,79.7,65.8,51.8,45.0,39.9,34.5,68,42,20,24.72,24.60,23,5,23,0.00
2013-8-25,82.9,62.8,50.4,53.8,42.7,33.9,74,51,20,24.78,24.66,22,4,22,0.00
2013-8-26,83.5,67.2,51.6,49.5,41.5,33.9,80,44,19,24.81,24.69,18,4,18,0.00
2013-8-27,84.7,67.4,52.3,44.7,38.8,32.3,62,39,16,24.81,24.69,23,6,23,0.00
2013-8-28,76.8,64.1,52.5,53.9,44.1,40.1,72,50,31,24.81,24.72,19,5,19,0.00
2013-8-29,85.8,68.2,53.2,48.8,41.4,32.0,71,43,16,24.83,24.72,19,5,19,0.00
2013-8-30,81.5,66.1,50.7,46.9,40.1,34.7,71,43,20,24.83,24.75,14,5,14,0.00
2013-8-31,82.6,65.4,48.6,42.1,37.7,31.4,69,40,19,24.89,24.78,15,4,15,0.00